Tracking 19969 objects as of 13-Nov-2019
Live streaming from Space Station
objects crossing your sky now
Track the group of recently launched Starlink satellites

COSMOS 2251 DEB

Track COSMOS 2251 DEB now!
10-day predictions


NORAD ID: 35462
Int'l Code: 1993-036ALG
Perigee: 768.1 km
Apogee: 924.0 km
Inclination: 74.0 °
Period: 101.7 minutes
Semi major axis: 7217 km
RCS: 0.0133 m2 (small)
Launch date: June 16, 1993
Source: Commonwealth of Independent States (former USSR) (CIS)
Launch site: PLESETSK MISSILE AND SPACE COMPLEX (PKMTR)

Note: This is SATELLITE DEBRIS
aabbcc
Your satellite tracking list
Your tracking list is empty




NASA's NSSDC Master Catalog

Two Line Element Set (TLE):
1 35462U 93036ALG 19316.21818907  .00000415  00000-0  21023-3 0  9998
2 35462  74.0430 282.0595 0107985 131.9385 229.1025 14.15999321544627
Source of the keplerian elements: AFSPC